Year,Month,Day,Hour,Minute,Value (Times are PST for windgust in km/hr)
2012,01,26,00,01,3.20
2012,01,26,00,11,1.60
2012,01,26,00,12,3.20
2012,01,26,00,31,6.40
2012,01,26,00,32,6.40
2012,01,26,00,33,3.20
2012,01,26,00,34,3.20
2012,01,26,00,37,8.10
2012,01,26,00,38,16.10
2012,01,26,00,39,11.30
2012,01,26,00,40,8.10
2012,01,26,00,41,14.50
2012,01,26,00,42,11.30
2012,01,26,00,43,9.60
2012,01,26,00,44,12.90
2012,01,26,00,45,9.60
2012,01,26,00,46,4.80
2012,01,26,00,47,17.70
2012,01,26,00,48,22.50
2012,01,26,00,49,17.70
2012,01,26,00,50,9.60
2012,01,26,00,51,9.60
2012,01,26,00,52,11.30
2012,01,26,00,53,30.60
2012,01,26,00,54,19.30
2012,01,26,00,55,16.10
2012,01,26,00,56,20.90
2012,01,26,00,57,11.30
2012,01,26,00,58,11.30
2012,01,26,00,59,17.70
2012,01,26,01,00,24.20
2012,01,26,01,01,9.60
2012,01,26,01,02,24.20
2012,01,26,01,03,25.70
2012,01,26,01,04,24.20
2012,01,26,01,05,11.30
2012,01,26,01,06,16.10
2012,01,26,01,07,16.10
2012,01,26,01,08,24.20
2012,01,26,01,09,22.50
2012,01,26,01,10,11.30
2012,01,26,01,11,6.40
2012,01,26,01,12,8.10
2012,01,26,01,13,35.40
2012,01,26,01,14,32.20
2012,01,26,01,15,20.90
2012,01,26,01,16,35.40
2012,01,26,01,17,22.50
2012,01,26,01,18,32.20
2012,01,26,01,19,37.00
2012,01,26,01,20,24.20
2012,01,26,01,21,41.80
2012,01,26,01,22,27.40
2012,01,26,01,23,43.50
2012,01,26,01,24,25.70
2012,01,26,01,25,45.10
2012,01,26,01,26,30.60
2012,01,26,01,27,20.90
2012,01,26,01,28,24.20
2012,01,26,01,29,9.60
2012,01,26,01,30,29.00
2012,01,26,01,31,22.50
2012,01,26,01,32,30.60
2012,01,26,01,33,27.40
2012,01,26,01,34,27.40
2012,01,26,01,35,29.00
2012,01,26,01,36,57.90
2012,01,26,01,37,40.20
2012,01,26,01,38,38.60
2012,01,26,01,39,48.30
2012,01,26,01,40,33.80
2012,01,26,01,41,35.40
2012,01,26,01,42,24.20
2012,01,26,01,43,45.10
2012,01,26,01,44,29.00
2012,01,26,01,45,25.70
2012,01,26,01,46,38.60
2012,01,26,01,47,27.40
2012,01,26,01,48,45.10
2012,01,26,01,49,37.00
2012,01,26,01,50,54.70
2012,01,26,01,51,33.80
2012,01,26,01,52,38.60
2012,01,26,01,53,38.60
2012,01,26,01,54,48.30
2012,01,26,01,55,57.90
2012,01,26,01,56,41.80
2012,01,26,01,57,43.50
2012,01,26,01,58,53.10
2012,01,26,01,59,51.50
2012,01,26,02,00,30.60
2012,01,26,02,01,29.00
2012,01,26,02,02,46.70
2012,01,26,02,03,29.00
2012,01,26,02,04,45.10
2012,01,26,02,05,38.60
2012,01,26,02,06,48.30
2012,01,26,02,07,45.10
2012,01,26,02,08,40.20
2012,01,26,02,09,43.50
2012,01,26,02,10,33.80
2012,01,26,02,11,20.90
2012,01,26,02,12,67.60
2012,01,26,02,13,67.60
2012,01,26,02,14,48.30
2012,01,26,02,15,30.60
2012,01,26,02,16,27.40
2012,01,26,02,17,37.00
2012,01,26,02,18,25.70
2012,01,26,02,19,66.00
2012,01,26,02,20,37.00
2012,01,26,02,21,32.20
2012,01,26,02,22,53.10
2012,01,26,02,23,51.50
2012,01,26,02,24,48.30
2012,01,26,02,25,40.20
2012,01,26,02,26,41.80
2012,01,26,02,27,61.20
2012,01,26,02,28,40.20
2012,01,26,02,29,38.60
2012,01,26,02,30,32.20
2012,01,26,02,31,41.80
2012,01,26,02,32,33.80
2012,01,26,02,33,32.20
2012,01,26,02,34,70.80
2012,01,26,02,35,40.20
2012,01,26,02,36,30.60
2012,01,26,02,37,24.20
2012,01,26,02,38,27.40
2012,01,26,02,39,53.10
2012,01,26,02,40,37.00
2012,01,26,02,41,30.60
2012,01,26,02,42,32.20
2012,01,26,02,43,49.90
2012,01,26,02,44,45.10
2012,01,26,02,45,49.90
2012,01,26,02,46,19.30
2012,01,26,02,47,49.90
2012,01,26,02,48,37.00
2012,01,26,02,49,43.50
2012,01,26,02,50,57.90
2012,01,26,02,51,46.70
2012,01,26,02,52,32.20
2012,01,26,02,53,25.70
2012,01,26,02,54,20.90
2012,01,26,02,55,24.20
2012,01,26,02,56,40.20
2012,01,26,02,57,25.70
2012,01,26,02,58,30.60
2012,01,26,02,59,35.40
2012,01,26,03,00,19.30
2012,01,26,03,01,33.80
2012,01,26,03,02,43.50
2012,01,26,03,03,64.40
2012,01,26,03,04,46.70
2012,01,26,03,05,41.80
2012,01,26,03,06,41.80
2012,01,26,03,07,35.40
2012,01,26,03,08,32.20
2012,01,26,03,09,35.40
2012,01,26,03,10,48.30
2012,01,26,03,11,49.90
2012,01,26,03,12,46.70
2012,01,26,03,13,35.40
2012,01,26,03,14,32.20
2012,01,26,03,15,38.60
2012,01,26,03,16,43.50
2012,01,26,03,17,33.80
2012,01,26,03,18,43.50
2012,01,26,03,19,41.80
2012,01,26,03,20,53.10
2012,01,26,03,21,54.70
2012,01,26,03,22,53.10
2012,01,26,03,23,51.50
2012,01,26,03,24,41.80
2012,01,26,03,25,43.50
2012,01,26,03,26,51.50
2012,01,26,03,27,51.50
2012,01,26,03,28,27.40
2012,01,26,03,29,37.00
2012,01,26,03,30,29.00
2012,01,26,03,31,22.50
2012,01,26,03,32,49.90
2012,01,26,03,33,27.40
2012,01,26,03,34,41.80
2012,01,26,03,35,37.00
2012,01,26,03,36,33.80
2012,01,26,03,37,41.80
2012,01,26,03,38,27.40
2012,01,26,03,39,35.40
2012,01,26,03,40,22.50
2012,01,26,03,41,33.80
2012,01,26,03,42,38.60
2012,01,26,03,43,45.10
2012,01,26,03,44,37.00
2012,01,26,03,45,45.10
2012,01,26,03,46,24.20
2012,01,26,03,47,45.10
2012,01,26,03,48,43.50
2012,01,26,03,49,35.40
2012,01,26,03,50,25.70
2012,01,26,03,51,16.10
2012,01,26,03,52,33.80
2012,01,26,03,53,17.70
2012,01,26,03,54,19.30
2012,01,26,03,55,30.60
2012,01,26,03,56,19.30
2012,01,26,03,57,40.20
2012,01,26,03,58,29.00
2012,01,26,03,59,33.80
2012,01,26,04,00,27.40
2012,01,26,04,01,25.70
2012,01,26,04,02,35.40
2012,01,26,04,03,19.30
2012,01,26,04,04,20.90
2012,01,26,04,05,16.10
2012,01,26,04,06,43.50
2012,01,26,04,07,25.70
2012,01,26,04,08,25.70
2012,01,26,04,09,24.20
2012,01,26,04,10,16.10
2012,01,26,04,11,24.20
2012,01,26,04,12,29.00
2012,01,26,04,13,19.30
2012,01,26,04,14,25.70
2012,01,26,04,15,9.60
2012,01,26,04,16,27.40
2012,01,26,04,17,32.20
2012,01,26,04,18,27.40
2012,01,26,04,19,27.40
2012,01,26,04,20,25.70
2012,01,26,04,21,22.50
2012,01,26,04,22,11.30
2012,01,26,04,23,20.90
2012,01,26,04,24,20.90
2012,01,26,04,25,17.70
2012,01,26,04,26,27.40
2012,01,26,04,27,20.90
2012,01,26,04,28,14.50
2012,01,26,04,29,19.30
2012,01,26,04,30,29.00
2012,01,26,04,31,16.10
2012,01,26,04,32,8.10
2012,01,26,04,33,27.40
2012,01,26,04,34,6.40
2012,01,26,04,35,9.60
2012,01,26,04,36,17.70
2012,01,26,04,37,11.30
2012,01,26,04,38,16.10
2012,01,26,04,39,14.50
2012,01,26,04,40,11.30
2012,01,26,04,41,17.70
2012,01,26,04,42,6.40
2012,01,26,04,43,17.70
2012,01,26,04,44,17.70
2012,01,26,04,45,16.10
2012,01,26,04,46,14.50
2012,01,26,04,47,17.70
2012,01,26,04,48,17.70
2012,01,26,04,49,11.30
2012,01,26,04,50,9.60
2012,01,26,04,51,8.10
2012,01,26,04,52,11.30
2012,01,26,04,53,6.40
2012,01,26,04,54,20.90
2012,01,26,04,55,14.50
2012,01,26,04,56,20.90
2012,01,26,04,57,17.70
2012,01,26,04,58,9.60
2012,01,26,04,59,11.30
2012,01,26,05,00,11.30
2012,01,26,05,01,9.60
2012,01,26,05,02,9.60
2012,01,26,05,03,30.60
2012,01,26,05,04,35.40
2012,01,26,05,05,17.70
2012,01,26,05,06,6.40
2012,01,26,05,07,11.30
2012,01,26,05,08,9.60
2012,01,26,05,09,8.10
2012,01,26,05,10,27.40
2012,01,26,05,11,19.30
2012,01,26,05,12,16.10
2012,01,26,05,13,24.20
2012,01,26,05,14,11.30
2012,01,26,05,15,11.30
2012,01,26,05,16,16.10
2012,01,26,05,17,16.10
2012,01,26,05,18,3.20
2012,01,26,05,19,17.70
2012,01,26,05,20,9.60
2012,01,26,05,21,6.40
2012,01,26,05,22,4.80
2012,01,26,05,23,4.80
2012,01,26,05,24,8.10
2012,01,26,05,25,9.60
2012,01,26,05,26,11.30
2012,01,26,05,27,9.60
2012,01,26,05,28,9.60
2012,01,26,05,29,9.60
2012,01,26,05,30,6.40
2012,01,26,05,31,4.80
2012,01,26,05,32,9.60
2012,01,26,05,33,6.40
2012,01,26,05,34,9.60
2012,01,26,05,35,8.10
2012,01,26,05,36,8.10
2012,01,26,05,37,17.70
2012,01,26,05,38,29.00
2012,01,26,05,39,16.10
2012,01,26,05,40,11.30
2012,01,26,05,41,9.60
2012,01,26,05,42,8.10
2012,01,26,05,43,4.80
2012,01,26,05,44,3.20
2012,01,26,05,45,8.10
2012,01,26,05,46,8.10
2012,01,26,05,47,6.40
2012,01,26,05,48,1.60
2012,01,26,05,49,1.60
2012,01,26,05,50,14.50
2012,01,26,05,51,6.40
2012,01,26,05,52,1.60
2012,01,26,05,53,4.80
2012,01,26,05,54,3.20
2012,01,26,05,55,12.90
2012,01,26,05,56,6.40
2012,01,26,05,57,8.10
2012,01,26,05,58,1.60
2012,01,26,06,00,1.60
2012,01,26,06,01,3.20
2012,01,26,06,02,8.10
2012,01,26,06,03,11.30
2012,01,26,06,04,11.30
2012,01,26,06,05,9.60
2012,01,26,06,06,3.20
2012,01,26,06,07,16.10
2012,01,26,06,08,6.40
2012,01,26,06,09,4.80
2012,01,26,06,10,8.10
2012,01,26,06,11,9.60
2012,01,26,06,12,4.80
2012,01,26,06,13,8.10
2012,01,26,06,14,9.60
2012,01,26,06,15,11.30
2012,01,26,06,16,3.20
2012,01,26,06,18,11.30
2012,01,26,06,19,8.10
2012,01,26,06,20,6.40
2012,01,26,06,21,3.20
2012,01,26,06,22,6.40
2012,01,26,06,23,11.30
2012,01,26,06,24,12.90
2012,01,26,06,25,9.60
2012,01,26,06,26,6.40
2012,01,26,06,27,16.10
2012,01,26,06,28,6.40
2012,01,26,06,29,16.10
2012,01,26,06,30,3.20
2012,01,26,06,31,8.10
2012,01,26,06,32,8.10
2012,01,26,06,33,16.10
2012,01,26,06,34,9.60
2012,01,26,06,35,8.10
2012,01,26,06,36,3.20
2012,01,26,06,37,3.20
2012,01,26,06,40,16.10
2012,01,26,06,41,14.50
2012,01,26,06,42,3.20
2012,01,26,06,43,9.60
2012,01,26,06,44,6.40
2012,01,26,06,45,6.40
2012,01,26,06,46,9.60
2012,01,26,06,47,4.80
2012,01,26,06,48,3.20
2012,01,26,06,49,3.20
2012,01,26,06,50,6.40
2012,01,26,06,51,4.80
2012,01,26,06,53,4.80
2012,01,26,06,54,6.40
2012,01,26,06,55,4.80
2012,01,26,06,56,6.40
2012,01,26,06,57,4.80
2012,01,26,06,58,4.80
2012,01,26,06,59,9.60
2012,01,26,07,00,3.20
2012,01,26,07,03,4.80
2012,01,26,07,04,1.60
2012,01,26,07,05,3.20
2012,01,26,07,06,4.80
2012,01,26,07,07,6.40
2012,01,26,07,08,1.60
2012,01,26,07,09,3.20
2012,01,26,07,10,3.20
2012,01,26,07,11,1.60
2012,01,26,07,12,3.20
2012,01,26,07,13,9.60
2012,01,26,07,14,4.80
2012,01,26,07,15,6.40
2012,01,26,07,16,8.10
2012,01,26,07,17,1.60
2012,01,26,07,18,4.80
2012,01,26,07,19,3.20
2012,01,26,07,20,3.20
2012,01,26,07,21,8.10
2012,01,26,07,22,12.90
2012,01,26,07,23,16.10
2012,01,26,07,24,12.90
2012,01,26,07,25,8.10
2012,01,26,07,26,16.10
2012,01,26,07,27,12.90
2012,01,26,07,28,11.30
2012,01,26,07,29,8.10
2012,01,26,07,30,14.50
2012,01,26,07,31,9.60
2012,01,26,07,32,3.20
2012,01,26,07,33,16.10
2012,01,26,07,34,6.40
2012,01,26,07,35,16.10
2012,01,26,07,36,3.20
2012,01,26,07,37,4.80
2012,01,26,07,38,4.80
2012,01,26,07,39,4.80
2012,01,26,07,40,8.10
2012,01,26,07,41,8.10
2012,01,26,07,42,8.10
2012,01,26,07,43,1.60
2012,01,26,07,44,1.60
2012,01,26,07,45,1.60
2012,01,26,07,46,1.60
2012,01,26,07,47,1.60
2012,01,26,07,48,6.40
2012,01,26,07,49,8.10
2012,01,26,07,50,16.10
2012,01,26,07,51,9.60
2012,01,26,07,52,8.10
2012,01,26,07,53,3.20
2012,01,26,07,54,3.20
2012,01,26,07,55,3.20
2012,01,26,07,56,3.20
2012,01,26,07,57,3.20
2012,01,26,08,00,3.20
2012,01,26,08,01,4.80
2012,01,26,08,02,4.80
2012,01,26,08,03,3.20
2012,01,26,08,04,9.60
2012,01,26,08,05,11.30
2012,01,26,08,06,1.60
2012,01,26,08,07,1.60
2012,01,26,08,08,1.60
2012,01,26,08,09,12.90
2012,01,26,08,10,8.10
2012,01,26,08,11,12.90
2012,01,26,08,12,6.40
2012,01,26,08,13,16.10
2012,01,26,08,14,16.10
2012,01,26,08,15,11.30
2012,01,26,08,16,8.10
2012,01,26,08,17,11.30
2012,01,26,08,18,14.50
2012,01,26,08,19,11.30
2012,01,26,08,20,14.50
2012,01,26,08,21,11.30
2012,01,26,08,22,6.40
2012,01,26,08,23,6.40
2012,01,26,08,24,3.20
2012,01,26,08,25,14.50
2012,01,26,08,26,11.30
2012,01,26,08,27,8.10
2012,01,26,08,28,6.40
2012,01,26,08,29,16.10
2012,01,26,08,30,8.10
2012,01,26,08,31,9.60
2012,01,26,08,32,6.40
2012,01,26,08,33,6.40
2012,01,26,08,34,6.40
2012,01,26,08,35,14.50
2012,01,26,08,36,11.30
2012,01,26,08,37,11.30
2012,01,26,08,38,8.10
2012,01,26,08,39,9.60
2012,01,26,08,40,19.30
2012,01,26,08,41,11.30
2012,01,26,08,42,9.60
2012,01,26,08,43,6.40
2012,01,26,08,44,17.70
2012,01,26,08,45,8.10
2012,01,26,08,46,6.40
2012,01,26,08,47,14.50
2012,01,26,08,48,14.50
2012,01,26,08,49,9.60
2012,01,26,08,50,9.60
2012,01,26,08,51,12.90
2012,01,26,08,52,16.10
2012,01,26,08,53,14.50
2012,01,26,08,54,14.50
2012,01,26,08,55,3.20
2012,01,26,08,56,6.40
2012,01,26,08,57,6.40
2012,01,26,08,58,4.80
2012,01,26,08,59,4.80
2012,01,26,09,00,8.10
2012,01,26,09,01,8.10
2012,01,26,09,02,14.50
2012,01,26,09,03,3.20
2012,01,26,09,04,6.40
2012,01,26,09,05,4.80
2012,01,26,09,06,4.80
2012,01,26,09,07,3.20
2012,01,26,09,08,9.60
2012,01,26,09,09,8.10
2012,01,26,09,10,1.60
2012,01,26,09,13,1.60
2012,01,26,09,14,3.20
2012,01,26,09,15,14.50
2012,01,26,09,16,17.70
2012,01,26,09,17,4.80
2012,01,26,09,18,6.40
2012,01,26,09,19,9.60
2012,01,26,09,20,9.60
2012,01,26,09,21,11.30
2012,01,26,09,22,17.70
2012,01,26,09,23,16.10
2012,01,26,09,24,11.30
2012,01,26,09,25,6.40
2012,01,26,09,26,12.90
2012,01,26,09,27,17.70
2012,01,26,09,28,16.10
2012,01,26,09,29,9.60
2012,01,26,09,30,11.30
2012,01,26,09,31,14.50
2012,01,26,09,32,16.10
2012,01,26,09,33,17.70
2012,01,26,09,34,9.60
2012,01,26,09,35,22.50
2012,01,26,09,36,16.10
2012,01,26,09,37,6.40
2012,01,26,09,38,9.60
2012,01,26,09,39,17.70
2012,01,26,09,40,14.50
2012,01,26,09,41,19.30
2012,01,26,09,42,20.90
2012,01,26,09,43,14.50
2012,01,26,09,44,22.50
2012,01,26,09,45,19.30
2012,01,26,09,46,11.30
2012,01,26,09,47,20.90
2012,01,26,09,48,25.70
2012,01,26,09,49,16.10
2012,01,26,09,50,20.90
2012,01,26,09,51,20.90
2012,01,26,09,52,16.10
2012,01,26,09,53,24.20
2012,01,26,09,54,24.20
2012,01,26,09,55,27.40
2012,01,26,09,56,17.70
2012,01,26,09,57,19.30
2012,01,26,09,58,20.90
2012,01,26,09,59,19.30
2012,01,26,10,00,14.50
2012,01,26,10,01,6.40
2012,01,26,10,02,16.10
2012,01,26,10,03,11.30
2012,01,26,10,04,8.10
2012,01,26,10,05,14.50
2012,01,26,10,06,17.70
2012,01,26,10,07,16.10
2012,01,26,10,08,14.50
2012,01,26,10,09,14.50
2012,01,26,10,10,24.20
2012,01,26,10,11,16.10
2012,01,26,10,12,11.30
2012,01,26,10,13,6.40
2012,01,26,10,14,9.60
2012,01,26,10,15,11.30
2012,01,26,10,16,6.40
2012,01,26,10,17,9.60
2012,01,26,10,18,6.40
2012,01,26,10,19,17.70
2012,01,26,10,20,8.10
2012,01,26,10,21,8.10
2012,01,26,10,22,11.30
2012,01,26,10,23,14.50
2012,01,26,10,24,4.80
2012,01,26,10,25,9.60
2012,01,26,10,26,17.70
2012,01,26,10,27,11.30
2012,01,26,10,28,9.60
2012,01,26,10,29,9.60
2012,01,26,10,30,9.60
2012,01,26,10,31,9.60
2012,01,26,10,32,16.10
2012,01,26,10,33,4.80
2012,01,26,10,34,9.60
2012,01,26,10,35,6.40
2012,01,26,10,36,11.30
2012,01,26,10,37,35.40
2012,01,26,10,38,32.20
2012,01,26,10,39,17.70
2012,01,26,10,40,24.20
2012,01,26,10,41,20.90
2012,01,26,10,42,20.90
2012,01,26,10,43,17.70
2012,01,26,10,44,32.20
2012,01,26,10,45,11.30
2012,01,26,10,46,8.10
2012,01,26,10,47,14.50
2012,01,26,10,48,22.50
2012,01,26,10,49,19.30
2012,01,26,10,50,27.40
2012,01,26,10,51,11.30
2012,01,26,10,52,16.10
2012,01,26,10,53,24.20
2012,01,26,10,54,16.10
2012,01,26,10,55,25.70
2012,01,26,10,56,16.10
2012,01,26,10,57,20.90
2012,01,26,10,58,17.70
2012,01,26,10,59,22.50
2012,01,26,11,00,25.70
2012,01,26,11,01,25.70
2012,01,26,11,02,17.70
2012,01,26,11,03,22.50
2012,01,26,11,04,11.30
2012,01,26,11,05,8.10
2012,01,26,11,06,17.70
2012,01,26,11,07,6.40
2012,01,26,11,08,14.50
2012,01,26,11,09,11.30
2012,01,26,11,10,16.10
2012,01,26,11,11,16.10
2012,01,26,11,12,24.20
2012,01,26,11,13,17.70
2012,01,26,11,14,30.60
2012,01,26,11,15,17.70
2012,01,26,11,16,8.10
2012,01,26,11,17,14.50
2012,01,26,11,18,11.30
2012,01,26,11,19,20.90
2012,01,26,11,20,14.50
2012,01,26,11,21,37.00
2012,01,26,11,22,24.20
2012,01,26,11,23,27.40
2012,01,26,11,24,27.40
2012,01,26,11,25,22.50
2012,01,26,11,26,27.40
2012,01,26,11,27,19.30
2012,01,26,11,28,16.10
2012,01,26,11,29,20.90
2012,01,26,11,30,29.00
2012,01,26,11,31,33.80
2012,01,26,11,32,38.60
2012,01,26,11,33,24.20
2012,01,26,11,34,22.50
2012,01,26,11,35,20.90
2012,01,26,11,36,16.10
2012,01,26,11,37,16.10
2012,01,26,11,38,9.60
2012,01,26,11,39,4.80
2012,01,26,11,40,1.60
2012,01,26,11,41,1.60
2012,01,26,11,42,19.30
2012,01,26,11,43,19.30
2012,01,26,11,44,11.30
2012,01,26,11,45,19.30
2012,01,26,11,46,33.80
2012,01,26,11,47,19.30
2012,01,26,11,48,20.90
2012,01,26,11,49,19.30
2012,01,26,11,50,16.10
2012,01,26,11,51,11.30
2012,01,26,11,52,30.60
2012,01,26,11,53,16.10
2012,01,26,11,54,24.20
2012,01,26,11,55,19.30
2012,01,26,11,56,22.50
2012,01,26,11,57,25.70
2012,01,26,11,58,20.90
2012,01,26,11,59,11.30
2012,01,26,12,00,17.70
2012,01,26,12,01,27.40
2012,01,26,12,02,16.10
2012,01,26,12,03,16.10
2012,01,26,12,04,20.90
2012,01,26,12,05,17.70
2012,01,26,12,06,27.40
2012,01,26,12,07,29.00
2012,01,26,12,08,33.80
2012,01,26,12,09,20.90
2012,01,26,12,10,20.90
2012,01,26,12,11,29.00
2012,01,26,12,12,25.70
2012,01,26,12,13,25.70
2012,01,26,12,14,22.50
2012,01,26,12,15,27.40
2012,01,26,12,16,24.20
2012,01,26,12,17,35.40
2012,01,26,12,18,19.30
2012,01,26,12,19,19.30
2012,01,26,12,20,33.80
2012,01,26,12,21,17.70
2012,01,26,12,22,16.10
2012,01,26,12,23,20.90
2012,01,26,12,24,20.90
2012,01,26,12,25,24.20
2012,01,26,12,26,19.30
2012,01,26,12,27,16.10
2012,01,26,12,28,22.50
2012,01,26,12,29,19.30
2012,01,26,12,30,27.40
2012,01,26,12,31,24.20
2012,01,26,12,32,17.70
2012,01,26,12,33,16.10
2012,01,26,12,34,14.50
2012,01,26,12,35,27.40
2012,01,26,12,36,22.50
2012,01,26,12,37,25.70
2012,01,26,12,38,24.20
2012,01,26,12,39,22.50
2012,01,26,12,40,14.50
2012,01,26,12,41,12.90
2012,01,26,12,42,14.50
2012,01,26,12,43,12.90
2012,01,26,12,44,25.70
2012,01,26,12,45,17.70
2012,01,26,12,46,17.70
2012,01,26,12,47,24.20
2012,01,26,12,48,16.10
2012,01,26,12,49,11.30
2012,01,26,12,50,22.50
2012,01,26,12,51,32.20
2012,01,26,12,52,20.90
2012,01,26,12,53,27.40
2012,01,26,12,54,24.20
2012,01,26,12,55,22.50
2012,01,26,12,56,16.10
2012,01,26,12,57,24.20
2012,01,26,12,58,22.50
2012,01,26,12,59,29.00
2012,01,26,13,00,24.20
2012,01,26,13,01,16.10
2012,01,26,13,02,24.20
2012,01,26,13,03,25.70
2012,01,26,13,04,25.70
2012,01,26,13,05,19.30
2012,01,26,13,06,14.50
2012,01,26,13,07,16.10
2012,01,26,13,08,16.10
2012,01,26,13,09,17.70
2012,01,26,13,10,14.50
2012,01,26,13,11,19.30
2012,01,26,13,12,14.50
2012,01,26,13,13,6.40
2012,01,26,13,14,22.50
2012,01,26,13,15,19.30
2012,01,26,13,16,17.70
2012,01,26,13,17,22.50
2012,01,26,13,18,16.10
2012,01,26,13,19,8.10
2012,01,26,13,20,20.90
2012,01,26,13,21,9.60
2012,01,26,13,22,19.30
2012,01,26,13,23,11.30
2012,01,26,13,24,12.90
2012,01,26,13,25,11.30
2012,01,26,13,26,16.10
2012,01,26,13,27,22.50
2012,01,26,13,28,17.70
2012,01,26,13,29,16.10
2012,01,26,13,30,22.50
2012,01,26,13,31,16.10
2012,01,26,13,32,22.50
2012,01,26,13,33,17.70
2012,01,26,13,34,9.60
2012,01,26,13,35,14.50
2012,01,26,13,36,30.60
2012,01,26,13,37,22.50
2012,01,26,13,38,22.50
2012,01,26,13,39,29.00
2012,01,26,13,40,27.40
2012,01,26,13,41,19.30
2012,01,26,13,42,14.50
2012,01,26,13,43,14.50
2012,01,26,13,44,24.20
2012,01,26,13,45,24.20
2012,01,26,13,46,12.90
2012,01,26,13,47,14.50
2012,01,26,13,48,20.90
2012,01,26,13,49,30.60
2012,01,26,13,50,24.20
2012,01,26,13,51,20.90
2012,01,26,13,52,22.50
2012,01,26,13,53,24.20
2012,01,26,13,54,27.40
2012,01,26,13,55,22.50
2012,01,26,13,56,17.70
2012,01,26,13,57,14.50
2012,01,26,13,58,9.60
2012,01,26,13,59,14.50
2012,01,26,14,00,16.10
2012,01,26,14,01,22.50
2012,01,26,14,02,20.90
2012,01,26,14,03,20.90
2012,01,26,14,04,14.50
2012,01,26,14,05,30.60
2012,01,26,14,06,35.40
2012,01,26,14,07,16.10
2012,01,26,14,08,19.30
2012,01,26,14,09,19.30
2012,01,26,14,10,16.10
2012,01,26,14,11,22.50
2012,01,26,14,12,16.10
2012,01,26,14,13,16.10
2012,01,26,14,14,19.30
2012,01,26,14,15,12.90
2012,01,26,14,16,11.30
2012,01,26,14,17,14.50
2012,01,26,14,18,19.30
2012,01,26,14,19,19.30
2012,01,26,14,20,19.30
2012,01,26,14,21,24.20
2012,01,26,14,22,20.90
2012,01,26,14,23,22.50
2012,01,26,14,24,12.90
2012,01,26,14,25,17.70
2012,01,26,14,26,25.70
2012,01,26,14,27,19.30
2012,01,26,14,28,9.60
2012,01,26,14,29,19.30
2012,01,26,14,30,17.70
2012,01,26,14,31,14.50
2012,01,26,14,32,17.70
2012,01,26,14,33,16.10
2012,01,26,14,34,19.30
2012,01,26,14,35,25.70
2012,01,26,14,36,14.50
2012,01,26,14,37,17.70
2012,01,26,14,38,14.50
2012,01,26,14,39,16.10
2012,01,26,14,40,24.20
2012,01,26,14,41,27.40
2012,01,26,14,42,29.00
2012,01,26,14,43,19.30
2012,01,26,14,44,17.70
2012,01,26,14,45,11.30
2012,01,26,14,46,25.70
2012,01,26,14,47,19.30
2012,01,26,14,48,17.70
2012,01,26,14,49,19.30
2012,01,26,14,50,17.70
2012,01,26,14,51,17.70
2012,01,26,14,52,20.90
2012,01,26,14,53,14.50
2012,01,26,14,54,20.90
2012,01,26,14,55,16.10
2012,01,26,14,56,22.50
2012,01,26,14,57,11.30
2012,01,26,14,58,19.30
2012,01,26,14,59,24.20
2012,01,26,15,00,22.50
2012,01,26,15,01,25.70
2012,01,26,15,02,16.10
2012,01,26,15,03,24.20
2012,01,26,15,04,24.20
2012,01,26,15,05,20.90
2012,01,26,15,06,25.70
2012,01,26,15,07,14.50
2012,01,26,15,08,11.30
2012,01,26,15,09,24.20
2012,01,26,15,10,14.50
2012,01,26,15,11,17.70
2012,01,26,15,12,24.20
2012,01,26,15,13,19.30
2012,01,26,15,14,16.10
2012,01,26,15,15,16.10
2012,01,26,15,16,11.30
2012,01,26,15,17,19.30
2012,01,26,15,18,8.10
2012,01,26,15,19,4.80
2012,01,26,15,20,9.60
2012,01,26,15,21,20.90
2012,01,26,15,22,12.90
2012,01,26,15,23,17.70
2012,01,26,15,24,27.40
2012,01,26,15,25,16.10
2012,01,26,15,26,17.70
2012,01,26,15,27,19.30
2012,01,26,15,28,17.70
2012,01,26,15,29,16.10
2012,01,26,15,30,16.10
2012,01,26,15,31,25.70
2012,01,26,15,32,11.30
2012,01,26,15,33,24.20
2012,01,26,15,34,22.50
2012,01,26,15,35,17.70
2012,01,26,15,36,22.50
2012,01,26,15,37,16.10
2012,01,26,15,38,11.30
2012,01,26,15,39,19.30
2012,01,26,15,40,9.60
2012,01,26,15,41,22.50
2012,01,26,15,42,17.70
2012,01,26,15,43,22.50
2012,01,26,15,44,16.10
2012,01,26,15,45,16.10
2012,01,26,15,46,17.70
2012,01,26,15,47,20.90
2012,01,26,15,48,22.50
2012,01,26,15,49,16.10
2012,01,26,15,50,14.50
2012,01,26,15,51,11.30
2012,01,26,15,52,17.70
2012,01,26,15,53,24.20
2012,01,26,15,54,16.10
2012,01,26,15,55,9.60
2012,01,26,15,56,17.70
2012,01,26,15,57,14.50
2012,01,26,15,58,17.70
2012,01,26,15,59,16.10
2012,01,26,16,00,27.40
2012,01,26,16,01,8.10
2012,01,26,16,02,8.10
2012,01,26,16,03,8.10
2012,01,26,16,04,8.10
2012,01,26,16,05,9.60
2012,01,26,16,06,24.20
2012,01,26,16,07,11.30
2012,01,26,16,08,11.30
2012,01,26,16,09,14.50
2012,01,26,16,10,19.30
2012,01,26,16,11,14.50
2012,01,26,16,12,14.50
2012,01,26,16,13,14.50
2012,01,26,16,14,16.10
2012,01,26,16,15,8.10
2012,01,26,16,16,11.30
2012,01,26,16,17,16.10
2012,01,26,16,18,9.60
2012,01,26,16,19,14.50
2012,01,26,16,20,9.60
2012,01,26,16,21,14.50
2012,01,26,16,22,30.60
2012,01,26,16,23,16.10
2012,01,26,16,24,19.30
2012,01,26,16,25,11.30
2012,01,26,16,26,6.40
2012,01,26,16,27,14.50
2012,01,26,16,28,14.50
2012,01,26,16,29,14.50
2012,01,26,16,30,19.30
2012,01,26,16,31,11.30
2012,01,26,16,32,14.50
2012,01,26,16,33,19.30
2012,01,26,16,34,17.70
2012,01,26,16,35,14.50
2012,01,26,16,36,12.90
2012,01,26,16,37,8.10
2012,01,26,16,38,14.50
2012,01,26,16,39,9.60
2012,01,26,16,40,14.50
2012,01,26,16,41,8.10
2012,01,26,16,42,16.10
2012,01,26,16,43,19.30
2012,01,26,16,44,17.70
2012,01,26,16,45,16.10
2012,01,26,16,46,19.30
2012,01,26,16,47,11.30
2012,01,26,16,48,12.90
2012,01,26,16,49,11.30
2012,01,26,16,50,9.60
2012,01,26,16,51,9.60
2012,01,26,16,52,9.60
2012,01,26,16,53,11.30
2012,01,26,16,54,9.60
2012,01,26,16,55,17.70
2012,01,26,16,56,16.10
2012,01,26,16,57,11.30
2012,01,26,16,58,17.70
2012,01,26,16,59,11.30
2012,01,26,17,00,8.10
2012,01,26,17,01,9.60
2012,01,26,17,02,22.50
2012,01,26,17,03,11.30
2012,01,26,17,04,14.50
2012,01,26,17,05,11.30
2012,01,26,17,06,20.90
2012,01,26,17,07,14.50
2012,01,26,17,08,16.10
2012,01,26,17,09,16.10
2012,01,26,17,10,11.30
2012,01,26,17,11,16.10
2012,01,26,17,12,8.10
2012,01,26,17,13,4.80
2012,01,26,17,14,4.80
2012,01,26,17,15,14.50
2012,01,26,17,16,8.10
2012,01,26,17,17,6.40
2012,01,26,17,18,16.10
2012,01,26,17,19,8.10
2012,01,26,17,20,11.30
2012,01,26,17,21,6.40
2012,01,26,17,22,4.80
2012,01,26,17,23,6.40
2012,01,26,17,24,6.40
2012,01,26,17,25,8.10
2012,01,26,17,26,17.70
2012,01,26,17,27,9.60
2012,01,26,17,28,11.30
2012,01,26,17,29,8.10
2012,01,26,17,30,14.50
2012,01,26,17,31,9.60
2012,01,26,17,32,4.80
2012,01,26,17,33,9.60
2012,01,26,17,34,6.40
2012,01,26,17,35,6.40
2012,01,26,17,36,8.10
2012,01,26,17,37,16.10
2012,01,26,17,38,14.50
2012,01,26,17,39,14.50
2012,01,26,17,40,17.70
2012,01,26,17,41,6.40
2012,01,26,17,42,8.10
2012,01,26,17,43,8.10
2012,01,26,17,44,4.80
2012,01,26,17,45,4.80
2012,01,26,17,46,6.40
2012,01,26,17,47,11.30
2012,01,26,17,48,9.60
2012,01,26,17,49,8.10
2012,01,26,17,50,4.80
2012,01,26,17,51,14.50
2012,01,26,17,52,8.10
2012,01,26,17,53,6.40
2012,01,26,17,54,17.70
2012,01,26,17,55,4.80
2012,01,26,17,56,4.80
2012,01,26,17,57,6.40
2012,01,26,17,58,17.70
2012,01,26,17,59,16.10
2012,01,26,18,00,19.30
2012,01,26,18,01,11.30
2012,01,26,18,02,9.60
2012,01,26,18,03,12.90
2012,01,26,18,04,11.30
2012,01,26,18,05,4.80
2012,01,26,18,06,14.50
2012,01,26,18,07,9.60
2012,01,26,18,08,11.30
2012,01,26,18,09,17.70
2012,01,26,18,10,9.60
2012,01,26,18,11,8.10
2012,01,26,18,12,11.30
2012,01,26,18,13,17.70